Location: Newark
(34.0131°N, 4.3314°W)
Time: 23:02:54
(UTC+00:00)

Explorer 11/Cluster Stage 4 - Pass Details

Date: 31 October 2019
Orbit: 467 x 1259 km, 28.8° (Epoch: 17 November)

Event Time Altitude Azimuth Distance (km) Brightness Sun altitude
Rises 03:00:16 0° 223° (SW) 3,941 - -44.9°
Reaches altitude 10° 03:03:50 10° 210° (SSW) 2,857 - -44.2°
Maximum altitude 03:09:07 23° 161° (SSE) 1,847 - -43.1°
Exits shadow 03:12:53 13° 116° (ESE) 2,229 9.3 -42.4°
Drops below altitude 10° 03:13:40 10° 109° (ESE) 2,415 9.6 -42.2°
Sets 03:16:24 0° 95° (E) 3,205 10.5 -41.6°
